Theta_e
320 320 320 319 318 319 320 319 317 317 318 319 318 318 319 319 319 319 320 321 320 319 319 319 319 319 319 320 319 320 319 318 319 317 317 318 318 319 319 318 319 319 319 319 320 320 320 320 320 320 319 319 319 319 319 320 319 318 317 317 316 316 316 316 315 316 315 315 315
320 320 318 315 316 317 319 319 318 318 318 319 319 319 319 319 318 318 319 319 319 318 318 318 318 319 319 319 319 318 318 317 317 317 317 317 318 318 318 317 318 319 319 319 320 320 320 320 319 319 318 318 318 318 318 318 318 318 317 317 316 316 316 316 315 316 316 316 315
320 320 319 319 319 320 320 319 319 319 319 319 319 319 319 318 318 318 318 317 318 318 318 318 318 318 318 318 318 318 318 317 317 317 317 317 317 317 317 317 317 318 318 318 320 320 320 319 318 317 317 318 318 318 317 317 316 317 316 316 316 316 316 316 315 316 316 316 315
320 320 320 320 320 320 319 319 319 319 319 319 320 319 318 318 318 318 317 316 316 316 317 317 317 317 317 317 317 317 317 315 316 317 317 317 317 317 317 316 317 317 318 319 319 320 320 319 318 317 316 317 317 317 316 316 316 316 316 316 316 316 315 315 315 316 316 315 315
320 320 320 320 320 320 320 320 320 319 320 320 320 319 319 318 318 318 317 317 316 316 316 317 317 317 317 317 317 316 316 315 314 315 317 317 316 317 316 317 317 317 318 319 319 319 319 319 318 317 317 316 316 316 316 316 316 315 315 316 316 315 315 315 315 315 315 315 315
320 320 320 320 320 320 320 320 320 320 320 320 319 319 318 318 318 318 318 317 317 316 315 315 315 315 315 316 316 316 316 316 315 316 317 316 316 316 317 316 317 318 318 319 319 319 319 319 317 317 316 316 316 316 316 316 316 315 315 315 315 316 316 315 315 315 314 314 314
320 320 320 320 321 320 321 321 321 321 321 321 319 319 318 318 318 318 318 318 318 317 315 313 314 314 315 315 315 315 316 316 316 317 316 316 316 316 316 317 317 318 318 319 319 318 318 318 317 316 314 314 315 315 316 316 316 315 315 314 315 315 316 315 315 314 314 314 314
320 320 320 320 320 320 320 321 321 321 321 321 320 319 318 318 318 318 318 319 319 318 316 315 315 315 315 315 315 315 315 316 316 316 316 316 316 317 317 317 317 318 318 319 318 318 318 317 317 316 315 314 315 315 315 316 315 315 314 314 315 315 315 315 315 314 313 313 313
319 319 320 320 320 320 320 320 321 320 321 320 320 319 318 317 317 317 317 318 318 317 316 315 315 315 315 315 315 315 316 316 317 316 316 316 316 316 317 317 317 318 318 318 318 318 317 317 316 316 315 315 315 315 315 315 315 315 315 314 314 314 314 315 314 314 313 313 312
318 318 319 319 319 319 319 319 319 319 319 319 319 318 317 314 316 316 317 316 316 316 316 315 315 315 315 315 315 315 316 317 317 316 316 316 316 316 317 317 317 317 317 317 318 318 317 317 316 316 316 315 315 315 315 315 315 315 314 314 314 314 314 314 314 313 313 312 312
318 318 318 318 318 317 318 318 318 318 318 318 318 317 316 315 316 316 316 316 316 315 315 315 315 315 315 315 315 316 316 317 316 316 316 316 316 316 317 317 317 317 317 317 317 317 317 316 316 315 315 315 315 315 314 314 314 314 314 314 314 314 313 313 313 313 313 312 312
318 317 317 317 317 317 316 316 316 316 316 316 316 316 316 317 317 316 316 316 315 315 316 315 316 315 315 315 316 316 316 316 316 315 316 316 316 316 316 316 316 316 316 316 317 317 317 316 316 315 315 314 315 314 314 314 314 314 314 314 314 314 314 313 313 313 313 313 311
318 318 317 316 316 316 315 315 315 315 315 315 315 316 316 317 317 317 316 316 316 316 316 316 316 316 316 316 316 316 316 315 315 315 315 316 316 316 316 316 316 316 316 316 316 316 316 316 316 315 315 314 314 314 314 314 313 313 313 313 313 313 313 313 313 313 313 312 311
318 317 317 316 316 315 315 314 314 314 314 314 315 315 316 317 316 316 317 317 317 317 317 317 316 316 316 316 316 316 315 315 315 315 315 315 316 316 315 316 316 316 316 316 316 316 316 316 316 315 315 314 314 314 313 313 313 313 313 313 313 313 313 313 313 313 312 311 310
317 317 317 316 315 315 314 314 314 314 314 314 315 315 315 316 316 316 317 317 317 317 317 317 317 316 316 315 315 315 315 315 315 315 315 315 315 315 315 315 316 316 316 316 316 316 316 316 315 315 315 315 314 314 314 313 313 313 313 313 313 312 313 313 313 313 312 310 310
316 316 316 316 315 314 314 313 313 313 314 314 314 315 315 316 316 316 316 317 317 317 317 317 317 317 316 315 315 315 315 315 315 315 315 315 316 316 316 316 316 316 316 316 316 316 315 316 315 315 315 314 314 314 314 313 313 313 313 312 312 313 312 312 312 312 311 310 309
315 315 315 315 314 314 313 313 313 313 313 313 314 315 315 315 316 315 315 315 316 317 317 317 317 317 316 315 315 316 316 316 315 316 316 317 317 317 317 317 316 316 316 316 316 316 316 315 315 314 314 314 314 314 314 314 313 313 312 312 312 312 312 311 311 311 311 310 309
313 314 314 314 313 313 313 312 312 312 313 313 314 314 315 316 316 315 315 315 316 317 316 317 317 317 317 317 317 317 316 316 316 317 318 319 319 320 320 319 318 317 317 316 316 316 315 315 315 314 314 314 314 314 313 313 313 313 312 312 312 312 312 311 310 310 309 309 308
313 313 314 313 313 313 313 312 312 312 312 313 314 314 315 316 316 316 316 316 316 316 316 317 317 317 318 318 318 317 316 317 317 317 318 319 320 321 321 320 319 318 317 316 316 315 315 315 314 314 314 313 313 313 313 313 313 312 312 311 311 311 311 310 309 309 308 308 307
315 314 315 315 315 315 314 313 313 313 313 314 314 315 315 316 317 316 316 317 317 317 317 317 317 318 318 318 318 317 317 317 318 319 319 320 321 321 320 319 319 318 316 316 316 315 315 314 314 314 314 313 313 313 312 312 311 311 310 309 309 309 309 308 308 308 307 307 306
317 316 317 317 317 317 316 316 315 315 314 315 315 315 316 316 317 317 317 317 317 318 317 317 317 317 318 317 317 317 317 317 319 319 319 319 320 319 319 318 319 319 319 318 317 317 316 314 314 314 313 312 312 312 311 310 310 309 308 308 307 307 307 307 307 307 306 306 306
318 319 319 319 319 318 318 317 317 316 316 315 315 315 316 316 317 317 318 318 318 318 317 317 317 317 318 318 317 317 318 318 319 319 318 319 319 319 318 319 320 320 319 319 318 317 316 316 315 314 313 311 310 310 309 309 308 308 308 307 307 306 306 306 305 305 305 305 304
319 319 320 319 319 318 317 318 318 317 317 316 316 316 316 316 317 317 318 319 318 318 318 318 318 318 318 318 318 318 318 318 319 319 319 320 320 319 320 320 320 320 319 318 317 317 316 315 314 313 312 310 309 309 308 308 307 307 306 306 306 305 305 305 304 303 303 303 302
319 319 319 319 319 319 318 319 318 318 317 317 317 317 317 317 318 318 318 319 319 319 318 318 318 318 319 318 318 318 318 318 320 320 321 321 321 320 319 319 318 318 317 317 315 313 312 312 312 311 310 309 309 309 308 308 307 306 306 305 304 304 304 303 302 302 301 301 300
322 320 319 320 320 320 320 320 319 319 318 317 317 318 318 318 318 318 318 319 319 319 319 319 319 319 319 318 318 318 319 319 321 321 321 320 319 319 318 316 316 316 315 311 303 301 302 303 307 308 309 309 308 308 307 306 306 305 305 304 303 302 302 301 300 300 299 299 299
324 323 323 323 323 322 322 323 322 320 319 318 318 318 318 318 319 319 319 319 319 319 319 319 319 318 317 318 318 318 318 320 320 320 319 318 318 317 316 316 316 316 312 303 297 295 296 297 298 301 305 309 307 307 306 306 306 306 305 304 302 301 300 300 300 300 300 301 300
326 325 325 325 324 324 324 325 326 324 322 319 318 318 318 318 319 319 318 318 318 319 319 319 319 316 314 318 319 318 318 319 319 319 318 317 316 315 315 315 314 312 306 296 294 294 295 295 296 298 302 308 307 306 305 304 304 304 303 303 303 302 302 302 303 303 303 303 302
329 329 329 328 327 327 327 327 328 328 327 325 323 322 322 321 320 319 319 319 320 320 321 322 320 318 318 319 319 319 319 319 319 318 317 316 315 314 313 313 312 307 300 294 294 295 295 296 296 297 298 301 306 306 304 304 303 303 303 303 303 303 304 304 304 304 304 303 304
332 332 332 331 329 329 329 329 329 330 331 332 331 330 328 327 325 323 323 323 323 322 322 322 320 319 319 319 319 318 318 318 318 317 316 315 314 313 313 312 309 303 297 293 295 295 295 295 295 295 296 298 303 305 305 304 303 303 303 304 304 304 304 304 304 304 304 304 304
333 333 333 332 331 330 330 330 330 331 332 334 334 333 330 328 325 324 323 323 322 321 320 320 319 319 318 318 318 317 317 317 317 316 315 314 313 311 310 310 309 304 298 293 295 295 295 294 294 294 294 296 300 304 306 305 305 305 304 305 305 305 305 305 305 305 305 305 305
331 332 333 332 331 330 329 329 330 330 331 332 332 332 330 328 325 323 322 322 321 320 318 318 318 318 318 318 317 316 315 315 314 314 313 312 310 310 310 311 308 303 296 293 294 294 295 294 294 294 294 295 298 303 306 306 306 306 306 305 305 306 306 306 306 306 306 306 305
331 331 332 331 330 330 329 329 329 329 329 330 331 331 330 327 324 323 322 321 320 318 318 318 318 317 316 316 316 315 314 313 313 312 311 310 310 310 310 310 306 300 295 293 294 294 294 294 294 294 294 294 297 302 306 307 307 307 307 307 307 307 307 307 307 307 307 306 305
330 330 330 330 330 329 329 328 327 327 327 328 329 329 329 326 324 323 322 320 319 318 317 316 316 315 315 315 314 313 312 312 311 310 309 309 310 311 311 308 304 298 293 292 293 294 294 294 294 294 294 293 297 302 305 306 307 307 308 308 308 308 308 308 308 307 307 306 305
327 327 328 328 328 328 327 327 327 327 326 327 328 328 327 325 323 321 320 318 318 317 317 316 316 315 315 315 313 312 311 310 310 310 310 311 312 312 310 308 304 297 293 292 293 293 293 294 294 294 293 293 298 301 304 304 305 306 307 308 308 308 308 307 307 307 307 307 307
325 325 326 326 326 327 327 328 327 327 326 326 327 327 326 323 321 320 318 315 316 316 316 316 316 315 315 314 313 312 310 309 310 310 311 311 312 311 309 307 302 296 292 293 293 293 293 294 294 293 293 294 299 301 303 303 304 305 306 306 305 305 304 303 302 302 302 304 305
324 324 324 325 326 326 327 328 328 327 326 326 326 325 324 322 320 319 316 314 315 316 316 316 315 314 314 313 312 310 310 310 310 310 311 311 312 311 309 306 301 296 292 293 293 293 293 293 293 293 294 296 300 302 303 303 304 305 304 301 299 298 297 296 295 295 295 297 300
324 324 324 324 325 326 327 328 328 327 326 325 325 324 323 321 319 318 317 315 316 316 315 315 314 314 313 313 312 312 312 313 312 312 311 310 311 311 309 306 302 296 292 292 293 293 293 293 292 293 295 298 301 302 303 303 304 303 300 297 296 295 294 293 292 291 291 292 294
324 323 323 324 324 325 326 327 327 327 325 325 325 324 322 320 319 317 316 314 316 316 315 315 314 314 314 314 314 313 313 313 312 311 311 310 310 310 309 306 302 298 294 292 292 292 292 292 292 293 295 299 301 302 303 303 302 300 297 295 293 292 292 291 290 289 288 289 289
324 324 324 324 324 325 326 327 327 327 325 325 324 324 323 321 319 317 315 314 316 316 315 315 315 314 313 311 310 308 307 306 306 306 306 307 307 306 305 304 301 297 294 291 291 291 292 292 292 293 295 298 301 303 303 302 299 296 295 293 292 291 290 289 288 288 287 287 288
325 325 325 324 325 325 326 327 327 326 326 325 324 323 322 321 319 317 316 316 317 318 316 314 312 310 307 303 302 300 299 299 300 299 300 300 299 299 299 300 298 295 293 291 291 291 291 292 292 293 295 298 301 302 301 299 296 294 293 292 290 290 289 288 288 287 286 286 286
326 326 325 325 325 326 326 327 327 326 326 325 324 323 322 320 319 319 318 319 317 315 312 308 305 303 300 298 297 297 295 295 295 295 296 295 295 295 296 297 296 295 293 292 291 291 291 292 293 294 295 297 300 300 298 296 294 292 291 291 290 289 288 287 287 286 286 285 285
Wind_Speed
8 8 7 7 7 7 7 6 6 7 7 7 8 8 8 9 9 9 9 9 10 10 10 9 9 9 11 14 15 15 14 12 12 12 11 10 10 11 11 10 10 9 9 9 9 9 8 8 6 5 4 5 5 5 5 5 5 5 5 5 5 5 5 6 5 6 6 6 5
9 8 8 7 7 7 7 7 7 7 7 7 7 8 8 8 9 9 9 10 10 11 10 10 10 11 13 15 14 14 13 11 11 11 10 10 11 11 11 10 10 10 10 10 10 8 7 7 6 5 4 4 5 5 5 6 6 6 6 6 5 4 5 5 5 6 6 6 5
8 9 9 8 8 8 8 8 8 9 9 8 7 7 8 8 8 8 8 10 11 12 11 10 11 12 14 15 13 12 12 11 11 11 10 9 10 10 10 10 10 11 11 10 10 8 7 7 6 5 4 4 5 5 5 5 5 5 5 6 5 4 4 4 5 5 5 4 5
9 9 9 10 10 10 10 9 10 11 10 8 8 8 8 7 7 6 7 8 11 11 11 11 12 13 14 14 14 13 12 11 11 10 10 9 9 10 10 10 10 10 11 10 10 10 8 7 5 5 5 5 6 5 5 5 5 5 5 5 4 4 4 4 4 4 4 4 4
9 9 9 9 11 11 11 11 12 11 10 8 8 8 7 7 6 6 6 6 7 9 11 14 13 13 14 15 15 15 13 12 11 10 9 8 8 9 10 10 10 10 10 10 10 10 9 8 5 5 5 5 5 5 5 5 5 5 4 4 4 4 4 4 4 4 4 4 4
9 9 9 9 10 11 11 12 13 12 10 9 9 9 8 7 7 7 6 6 6 8 11 14 14 14 15 16 15 14 12 11 10 9 8 8 8 9 9 10 11 11 10 10 10 10 9 8 5 4 4 5 5 5 6 6 6 5 5 4 4 4 4 4 4 4 4 4 5
10 10 10 10 11 11 11 12 12 11 10 9 11 11 11 10 9 9 9 8 7 7 9 11 13 14 14 15 14 12 11 10 9 9 9 8 8 9 10 11 12 11 10 10 10 10 10 9 6 5 5 4 4 6 7 7 6 6 6 5 4 4 5 5 4 4 5 6 6
9 10 10 11 11 12 12 13 12 11 10 9 11 13 15 14 14 13 12 10 9 8 9 10 12 13 13 13 12 11 11 10 9 9 8 8 9 10 11 12 13 12 12 11 11 10 9 8 6 5 5 5 4 5 7 8 8 7 7 6 5 5 5 5 5 5 5 7 7
8 9 10 11 12 12 13 13 13 12 11 11 14 16 17 18 18 17 15 13 12 12 11 11 12 11 11 11 11 11 10 10 10 10 9 9 11 12 12 12 13 13 12 12 11 11 10 7 6 5 5 5 5 6 7 9 9 9 8 6 5 5 5 5 6 6 6 7 8
8 9 11 11 12 13 14 14 14 14 15 15 17 18 19 19 19 18 16 14 15 15 14 13 11 10 10 10 11 10 10 10 11 12 12 11 12 13 13 12 13 12 12 11 11 11 10 7 6 6 6 6 6 7 8 9 10 10 8 5 6 7 7 6 6 7 7 8 8
8 9 10 11 13 14 15 15 15 15 16 17 19 19 19 19 19 18 17 16 16 17 16 14 11 10 9 9 10 11 11 11 13 13 13 13 13 14 14 13 13 13 12 12 11 10 9 8 8 8 8 7 7 8 8 9 10 10 9 7 7 8 9 8 8 8 7 8 9
8 8 9 11 13 14 14 14 14 15 15 16 17 18 18 17 17 17 16 16 16 15 15 14 12 11 10 10 11 12 14 15 16 15 15 15 15 15 15 14 14 14 13 12 11 10 9 9 9 10 10 8 7 7 8 9 9 10 10 9 9 9 10 10 10 9 8 8 8
8 8 9 11 12 12 12 12 12 12 13 14 15 15 16 16 16 16 16 16 15 14 13 14 14 13 13 13 14 15 17 18 18 16 15 16 16 15 15 14 14 14 13 12 11 10 9 10 10 11 10 10 8 7 8 9 9 10 10 10 10 10 10 11 11 10 9 8 8
9 9 10 10 11 10 10 9 9 10 11 13 13 13 14 14 15 15 15 15 15 14 14 15 15 15 16 17 18 19 19 18 18 17 16 16 15 15 15 14 14 14 13 12 11 11 11 10 11 11 11 11 9 8 8 8 9 9 10 10 11 11 10 10 10 10 9 9 8
11 10 10 10 10 9 8 8 7 8 9 11 11 12 12 12 13 14 14 15 16 16 15 16 16 17 18 20 21 20 20 18 17 17 16 16 16 15 15 14 14 14 13 12 11 11 11 11 11 11 11 11 10 9 8 8 8 8 9 9 9 10 9 9 9 9 9 8 8
12 12 11 11 10 9 9 8 7 8 9 10 11 11 12 12 12 13 15 16 16 16 16 17 17 17 17 18 19 18 18 16 16 15 15 14 14 14 14 14 14 14 13 12 11 10 10 10 10 10 10 10 10 9 9 8 8 7 8 8 7 8 8 8 8 7 7 7 6
15 14 14 13 13 12 11 10 9 9 10 11 12 12 12 12 12 13 14 16 15 15 16 17 16 15 15 14 15 15 14 14 14 13 12 12 12 12 12 12 12 12 12 11 10 10 9 8 7 8 8 8 8 8 8 8 7 7 7 6 6 6 6 5 5 5 5 4 5
18 17 17 17 16 16 15 14 12 12 13 14 14 13 13 13 13 13 13 14 14 14 16 17 15 14 13 13 13 12 12 13 13 12 12 11 11 11 11 10 10 10 10 10 10 9 9 8 7 6 6 6 5 5 4 4 3 3 4 4 4 4 4 3 2 2 2 2 2
20 20 19 19 18 18 17 16 15 15 15 15 14 14 13 13 14 13 12 12 13 14 15 15 14 14 13 13 12 11 10 11 12 12 11 10 10 9 9 8 8 8 8 8 8 8 8 7 6 5 4 3 2 1 1 2 2 2 2 1 0 1 1 1 1 1 1 1 2
20 20 19 19 18 18 17 17 16 15 15 14 14 14 14 14 14 14 13 13 12 12 13 14 13 13 12 12 11 10 8 7 9 9 9 8 8 7 7 6 5 5 5 5 5 6 6 6 6 5 4 3 3 3 4 4 4 5 5 4 4 3 3 2 2 2 2 2 2
18 18 18 17 17 17 16 16 16 15 15 14 15 15 15 14 15 14 14 13 11 11 12 13 13 12 12 11 10 9 7 5 6 7 8 7 7 7 6 5 5 5 4 4 5 5 6 7 6 6 6 5 5 5 4 4 4 4 5 4 4 3 3 3 3 3 3 3 3
16 16 17 16 16 16 15 15 15 15 16 15 15 15 15 14 15 14 13 11 10 10 10 11 12 12 12 11 9 8 6 4 5 6 6 7 7 6 6 6 6 7 7 7 7 7 8 8 7 7 6 6 5 5 4 3 3 3 4 4 3 2 2 2 3 3 3 3 4
15 15 15 15 15 14 14 14 14 15 15 16 16 15 15 14 14 13 12 10 9 9 9 9 10 11 12 10 9 8 7 5 5 5 6 6 7 7 7 6 7 7 7 6 7 7 8 7 7 6 6 5 5 5 4 4 3 3 3 3 3 3 3 3 4 3 3 4 4
11 11 12 11 12 12 11 11 11 12 13 14 15 15 14 14 13 12 11 10 9 9 9 8 9 10 11 11 10 9 8 6 6 6 6 7 8 8 7 6 6 6 6 5 5 6 6 6 6 5 5 5 5 5 5 4 4 3 3 4 4 4 4 4 4 4 3 4 4
8 8 8 8 9 9 8 8 8 9 11 12 13 13 13 13 13 12 11 11 10 9 9 9 10 10 10 10 10 9 8 7 7 7 7 8 8 7 7 5 5 4 4 4 5 6 6 5 4 4 4 4 4 4 4 4 3 3 3 4 4 4 4 4 4 4 4 3 4
8 8 8 8 8 8 8 7 7 8 9 11 12 12 13 13 13 13 13 12 11 10 9 9 9 10 10 10 10 9 8 8 7 8 8 8 8 7 6 5 4 4 4 5 6 7 8 7 7 6 5 5 5 5 4 4 5 5 5 5 5 4 4 4 4 4 4 3 3
9 9 9 9 9 9 9 8 7 8 9 10 11 11 12 12 12 13 13 12 11 10 8 7 7 8 8 8 9 9 8 8 8 8 9 9 8 8 6 5 4 4 5 7 9 10 10 10 10 9 7 6 5 5 4 4 5 5 5 5 4 4 4 3 3 3 2 2 2
8 8 9 10 10 10 9 8 8 8 8 8 9 9 10 10 11 11 11 10 9 8 5 4 5 6 6 7 8 9 9 9 8 8 8 8 8 8 7 5 5 5 6 9 10 11 11 11 10 9 8 6 5 4 4 4 4 4 4 4 3 3 3 2 2 2 1 1 1
7 8 8 9 10 10 9 8 8 7 7 6 7 8 8 9 10 10 9 8 7 6 5 5 5 5 6 8 9 9 10 9 8 8 7 7 8 7 6 6 5 7 9 11 12 11 11 11 10 9 8 7 5 4 4 3 3 3 3 3 2 2 2 2 2 2 2 2 3
8 8 8 9 9 9 9 8 7 6 5 5 5 6 7 9 10 10 10 9 8 6 6 6 6 8 9 10 10 9 9 8 8 7 7 8 7 7 6 6 6 7 9 12 12 12 12 11 10 9 8 7 5 4 4 3 3 3 2 2 2 3 3 3 3 3 3 3 3
8 8 8 8 9 9 9 8 7 6 6 5 6 7 8 9 10 10 10 9 8 7 7 8 9 10 11 10 10 9 9 8 7 7 7 7 8 7 6 6 7 7 8 11 12 12 12 11 10 9 8 7 5 4 4 4 3 3 3 3 3 3 3 3 3 3 4 4 4
8 8 8 8 9 8 8 8 7 7 6 6 7 8 8 9 10 10 9 9 8 9 9 9 10 11 11 10 10 9 9 8 8 7 7 7 7 7 6 7 8 8 8 11 12 12 12 11 10 9 8 7 5 4 4 4 3 3 3 3 3 4 3 3 3 3 4 4 4
9 9 9 9 9 9 8 8 8 7 7 7 8 8 9 9 9 9 9 8 9 9 10 10 10 10 10 10 10 10 9 9 9 8 7 6 6 7 7 8 8 7 8 11 12 12 12 11 10 9 8 7 5 4 3 2 2 2 2 2 3 3 3 3 2 3 3 4 4
11 11 10 10 10 10 9 9 8 8 7 7 8 8 9 8 9 8 8 7 7 8 8 8 9 8 9 9 10 10 9 9 9 8 8 7 6 6 7 8 7 7 8 11 12 12 11 11 10 10 9 7 5 3 2 2 1 0 0 1 1 2 2 3 3 3 2 2 2
12 12 12 12 11 11 10 9 9 8 8 8 8 9 9 9 9 8 7 6 6 7 7 7 7 7 8 8 8 9 9 9 9 8 8 7 7 7 8 8 7 8 10 12 12 12 11 11 11 10 8 6 4 3 2 2 0 0 1 4 6 8 9 10 9 9 8 7 5
14 14 13 13 12 12 11 11 10 10 9 9 9 9 9 9 8 8 7 7 7 8 8 8 7 8 8 8 7 7 8 8 8 7 7 7 7 8 9 9 8 9 10 11 12 12 11 11 10 9 7 5 3 2 2 2 1 2 5 9 10 11 12 12 12 12 11 10 8
15 15 14 14 13 13 13 12 11 11 10 10 9 10 10 10 9 8 7 7 8 9 9 8 8 9 8 7 7 6 6 6 7 6 6 7 8 8 9 9 8 8 8 10 11 11 11 10 10 9 7 4 3 2 2 2 3 5 8 10 10 11 11 10 11 11 12 11 11
16 16 15 15 15 14 14 13 12 12 11 11 10 10 10 10 10 8 7 6 8 9 9 8 9 9 9 8 8 8 9 8 8 8 8 8 8 8 9 9 8 6 5 5 7 9 9 10 10 9 6 4 3 3 2 3 5 7 8 9 9 10 10 8 8 9 11 13 14
16 16 16 16 16 16 15 14 14 13 13 12 11 10 10 9 9 8 7 6 8 8 9 9 9 10 10 11 11 12 13 13 12 11 10 9 8 8 9 10 8 6 4 3 3 5 7 9 10 8 6 4 3 3 3 5 7 8 8 8 8 8 8 8 7 8 10 13 16
17 17 17 16 16 15 15 15 14 14 13 12 12 12 11 9 9 9 8 7 7 8 9 11 12 13 13 13 13 14 14 14 13 13 12 12 11 11 11 10 9 7 6 6 5 5 6 8 9 8 6 3 3 3 5 6 7 8 7 7 7 7 7 7 7 7 8 10 13
16 16 16 16 15 15 15 15 14 13 12 12 13 11 10 9 10 10 9 7 9 10 12 13 14 14 14 12 13 14 14 14 13 13 13 13 13 12 11 10 9 8 7 7 7 7 7 8 7 6 4 2 3 4 6 6 7 7 7 7 6 6 6 6 6 7 7 8 9
Wind_Direction
126 128 128 129 128 126 123 119 119 119 120 120 122 127 132 136 137 140 144 148 148 148 146 145 150 156 161 165 169 173 176 174 168 166 163 160 158 157 157 157 157 157 158 160 162 164 166 166 162 161 161 164 167 169 171 172 173 173 172 171 173 177 182 189 193 192 192 194 192
125 125 124 123 123 122 120 118 116 116 116 114 115 120 126 132 135 139 145 151 153 152 149 147 151 156 160 163 167 171 174 173 167 163 161 159 156 156 157 159 162 163 164 164 164 165 167 166 161 160 160 162 165 169 173 176 173 173 174 175 176 178 182 191 198 199 198 198 196
124 123 124 124 124 124 124 122 119 117 116 113 113 117 121 126 131 137 145 153 154 153 151 149 153 155 158 162 166 171 174 173 166 163 161 159 156 155 157 161 166 169 170 169 168 167 167 165 160 159 161 164 167 170 173 177 171 171 175 180 178 179 183 192 200 203 203 202 200
123 124 125 126 127 128 128 126 123 121 119 117 115 115 116 119 124 132 142 150 152 152 152 151 152 155 158 161 167 172 176 173 165 161 159 160 157 156 157 164 170 174 174 172 170 169 168 164 160 160 162 165 166 169 173 179 171 171 175 183 181 181 183 190 198 202 204 204 203
125 124 124 124 126 126 126 127 127 125 122 120 118 116 115 115 119 126 133 141 149 153 153 152 151 154 158 163 170 175 175 169 162 159 160 162 161 159 161 168 173 176 176 173 171 169 167 163 161 163 165 167 170 172 175 177 174 172 175 183 185 185 185 188 194 197 200 202 203
125 122 120 118 119 120 123 127 129 128 125 122 121 120 120 120 124 128 133 136 145 154 156 153 149 152 159 166 171 173 170 162 159 161 166 169 167 164 166 172 176 178 177 173 170 168 167 165 164 165 167 169 173 174 175 176 177 177 179 183 188 188 187 188 191 193 195 198 200
125 123 120 118 117 119 122 127 129 129 127 124 126 127 128 130 132 135 136 137 144 158 164 162 153 154 160 167 168 165 160 155 160 168 174 175 172 172 173 177 179 179 176 172 169 169 170 169 168 169 170 172 175 177 177 177 179 181 183 184 187 189 191 192 191 191 194 196 199
124 125 124 122 121 122 125 129 130 131 132 133 135 136 137 138 140 141 142 143 151 163 174 177 163 158 158 162 158 154 152 154 164 175 182 180 178 179 180 180 180 179 177 174 172 172 173 172 171 171 171 173 176 179 180 180 182 185 188 187 186 190 194 196 193 192 193 197 200
125 128 129 129 128 129 131 133 135 138 140 143 145 145 145 145 146 148 149 152 158 167 175 183 172 161 153 152 148 147 149 158 172 182 187 184 183 183 183 181 180 179 178 177 175 175 175 172 173 172 172 174 178 183 185 184 185 189 192 189 186 188 194 200 197 194 193 197 201
127 132 135 136 137 138 139 140 143 145 148 150 151 150 149 149 150 152 155 157 161 166 172 179 174 162 149 146 144 146 153 167 182 189 190 187 186 185 184 181 180 179 179 180 177 176 176 173 175 176 176 176 181 186 188 188 189 192 194 193 189 190 194 201 201 197 195 198 202
130 136 140 143 146 147 147 147 149 152 153 154 152 150 149 149 152 154 156 157 160 163 167 170 167 160 152 149 150 154 164 180 190 192 190 187 187 186 185 182 181 181 181 181 178 177 178 176 179 180 179 178 183 188 192 192 193 195 197 197 195 195 196 200 204 203 200 200 202
134 140 146 150 154 154 153 153 154 155 155 152 148 145 144 146 149 151 153 154 156 159 161 163 162 161 160 159 161 167 177 189 192 192 190 188 188 188 187 184 183 183 182 182 179 179 181 180 183 183 182 179 184 190 194 196 198 199 200 200 201 201 201 201 203 205 206 203 203
142 147 152 157 159 158 157 156 154 153 150 146 141 139 140 142 145 147 149 151 154 157 159 161 163 166 168 171 174 180 187 192 192 190 189 188 188 188 187 185 185 184 184 184 181 182 184 183 185 186 186 183 186 191 195 198 201 203 205 204 205 206 207 204 204 205 206 206 205
148 152 156 160 160 158 155 153 149 146 142 138 136 136 138 141 144 147 150 153 158 161 164 166 169 172 176 179 183 187 190 191 190 189 189 188 188 188 188 187 187 187 187 187 184 185 186 187 187 189 190 188 189 192 196 199 203 207 209 209 209 211 211 210 207 206 206 207 207
149 152 155 155 154 152 147 144 140 137 136 134 135 137 140 144 148 152 157 162 166 169 170 172 174 177 181 184 186 188 189 189 188 188 188 188 188 189 190 189 189 190 189 189 186 187 188 189 189 190 192 193 193 193 196 201 206 210 214 215 215 214 215 215 213 210 208 206 206
148 151 152 151 149 146 143 141 139 138 139 139 142 145 148 153 158 163 167 170 173 175 176 176 177 178 181 184 185 186 187 187 187 187 187 188 188 189 191 191 191 191 191 189 187 186 187 188 188 190 192 195 196 195 196 199 205 212 217 221 222 221 220 219 220 218 215 207 205
151 152 153 153 152 151 151 151 152 152 153 155 158 160 162 165 169 173 175 177 177 178 179 178 176 176 178 181 183 183 184 186 186 187 187 186 186 187 189 191 191 190 189 187 184 183 184 184 184 186 190 196 199 199 198 198 201 207 214 221 225 227 227 225 226 227 226 217 210
157 159 160 160 160 160 161 163 165 166 167 169 170 172 173 174 175 177 179 180 180 180 179 178 175 174 175 178 180 181 183 186 186 186 185 185 184 184 186 189 188 187 186 185 182 181 180 179 178 179 184 193 199 201 201 198 197 201 209 217 224 229 233 236 239 245 251 247 234
164 165 166 167 168 168 169 170 172 174 175 176 177 178 179 178 177 177 179 180 180 180 179 177 174 173 173 175 177 178 181 184 184 183 181 180 177 176 177 179 179 180 180 181 180 177 173 168 165 163 165 171 170 140 76 51 44 38 35 33 330 265 275 328 350 350 336 312 285
168 170 171 172 172 173 173 174 175 177 178 178 179 179 179 178 176 176 177 179 179 179 178 176 172 170 169 171 171 172 174 176 175 173 170 167 161 158 156 155 155 158 163 167 166 160 152 144 137 130 122 108 93 77 66 57 54 51 49 46 41 37 32 27 21 10 353 328 308
171 172 173 174 175 175 175 175 175 176 176 176 177 178 178 177 175 175 176 177 177 176 176 173 169 166 165 167 166 165 163 161 159 159 157 154 145 138 130 121 114 107 101 95 98 103 106 107 104 101 97 92 88 82 77 71 72 72 72 69 59 50 41 32 28 20 11 358 350
173 174 173 173 175 175 175 174 173 173 173 174 175 176 176 175 174 174 174 173 172 172 172 169 164 162 162 164 161 157 152 144 146 148 149 145 135 125 114 105 98 93 88 85 86 88 91 93 95 97 99 101 99 96 92 88 88 92 95 98 94 85 73 65 56 48 39 33 28
173 172 171 172 174 174 174 172 170 169 170 171 172 173 174 173 171 170 169 168 168 169 168 163 158 159 160 161 157 152 146 138 137 137 135 131 122 115 109 104 102 101 100 99 101 102 103 104 106 108 111 114 117 118 119 121 122 124 127 128 126 121 111 98 85 74 64 56 46
170 169 169 170 171 171 171 170 167 166 167 168 169 170 170 169 167 166 165 165 167 168 167 161 154 153 155 158 156 152 145 138 132 125 118 112 111 111 111 111 111 110 109 108 112 115 118 119 122 125 128 132 135 137 140 142 145 147 146 141 134 128 120 107 94 85 76 72 63
164 164 164 164 165 165 165 164 162 162 164 166 167 167 166 165 163 163 164 165 167 169 168 163 153 150 151 155 154 149 141 133 125 116 109 105 107 109 112 114 113 108 103 98 104 109 112 114 119 124 126 123 117 113 113 114 114 115 116 116 115 114 111 102 92 80 70 65 68
163 163 162 160 159 160 161 163 162 162 163 165 166 166 166 164 162 163 164 166 168 170 171 168 156 149 148 152 147 140 132 125 117 113 110 109 109 109 109 107 100 89 79 72 83 88 89 85 84 86 89 88 82 77 74 72 71 72 75 81 86 91 91 86 77 67 56 43 44
166 166 165 161 159 160 162 165 164 164 165 166 168 168 167 164 162 163 164 167 168 170 171 165 147 138 136 138 130 125 121 117 113 112 112 114 115 115 114 105 94 82 73 73 79 80 80 79 78 79 80 83 83 83 82 80 73 70 70 72 74 78 82 84 82 77 66 46 27
165 164 162 159 159 160 161 162 163 164 166 168 169 168 165 160 156 156 159 161 162 160 152 128 113 114 117 116 114 114 114 115 114 114 115 117 120 121 117 108 99 92 90 91 88 86 84 84 85 86 89 92 94 96 97 97 93 90 88 89 90 95 103 114 129 142 150 156 158
153 153 152 153 154 154 154 154 155 157 158 157 158 156 152 145 141 140 141 141 139 132 117 99 98 103 108 111 112 114 116 118 119 120 121 122 124 121 116 110 107 105 105 105 101 97 94 93 94 96 99 103 107 110 110 109 109 111 113 118 125 137 151 167 178 186 189 193 191
140 138 139 141 143 144 145 145 144 139 131 121 120 123 126 127 128 129 129 127 124 117 111 107 109 112 115 118 119 121 123 126 127 127 126 126 124 123 122 120 118 115 115 116 112 109 107 105 104 104 105 107 110 113 116 117 120 126 134 145 156 168 179 187 193 198 200 196 187
133 130 129 131 134 136 138 139 135 127 115 100 95 98 106 116 123 126 127 126 122 118 115 116 118 121 123 125 126 127 128 128 127 127 127 127 127 129 129 124 116 114 117 121 117 115 113 111 110 108 107 107 110 116 123 128 136 144 153 162 171 179 186 191 194 194 190 180 169
131 128 127 128 131 134 136 137 134 128 118 108 101 100 105 115 123 128 129 128 126 124 123 123 125 126 127 126 126 125 124 124 125 125 126 128 131 130 123 108 105 110 119 123 119 117 116 116 116 115 114 115 119 126 133 137 145 150 156 164 174 180 186 189 185 178 171 164 159
139 136 133 133 135 137 139 141 139 136 129 120 114 111 113 118 123 127 129 129 129 129 129 128 128 127 127 126 123 122 121 123 126 128 130 134 134 128 117 104 104 113 124 127 122 121 122 124 126 127 127 127 131 136 140 139 140 142 151 162 173 179 180 177 163 156 156 160 162
152 149 146 145 145 145 146 147 146 144 140 134 127 122 121 121 124 126 127 127 127 126 126 124 124 123 122 121 121 122 124 126 130 133 137 141 138 127 116 109 112 123 131 131 127 128 131 136 139 139 137 133 135 139 144 142 122 96 137 146 127 114 101 85 72 70 77 103 132
164 162 160 157 155 153 152 152 152 152 151 147 139 131 125 122 123 124 124 121 119 117 116 115 114 113 112 113 116 120 124 128 133 139 143 144 133 119 109 106 114 128 136 134 133 137 142 148 148 144 138 131 132 136 140 144 151 28 48 56 58 57 54 52 44 37 30 26 34
172 171 169 167 163 161 159 157 158 159 159 157 147 136 128 122 120 119 118 117 116 116 115 114 112 110 109 110 113 118 124 130 135 138 138 133 122 112 106 107 118 132 140 139 140 145 151 153 148 140 131 125 126 131 137 146 145 91 74 67 61 56 52 49 43 36 29 23 28
176 176 175 173 170 168 165 163 163 164 164 161 150 140 132 125 122 119 118 118 119 119 119 117 116 115 115 116 116 116 116 119 119 116 113 111 111 110 110 112 122 134 143 144 146 151 153 149 140 133 127 125 129 134 139 146 117 90 79 73 66 60 56 53 48 41 36 30 33
178 178 177 176 175 173 171 168 167 166 165 161 152 143 137 131 127 125 124 125 125 125 124 124 121 118 113 108 101 89 79 72 75 79 84 92 100 106 110 111 114 120 129 136 146 149 148 141 136 133 131 133 137 141 136 121 97 88 82 75 70 64 60 58 54 49 44 40 41
179 179 178 179 178 176 174 171 169 167 165 161 155 149 144 137 133 132 133 134 132 131 128 124 114 104 93 83 77 70 63 56 55 58 62 67 71 81 90 96 93 86 75 66 111 133 137 136 136 135 135 137 141 133 114 99 93 89 86 82 79 73 68 65 61 57 51 47 46
179 179 179 180 179 177 174 170 169 167 165 162 159 156 150 142 137 138 140 142 133 121 108 96 90 85 81 77 75 70 64 57 54 54 55 56 55 59 67 77 75 67 57 49 68 100 123 132 136 137 138 141 133 114 102 99 98 96 94 91 89 84 77 70 66 61 56 50 48
179 179 179 179 177 175 172 168 167 165 164 164 162 159 152 144 140 140 138 126 105 94 89 86 83 81 80 79 78 75 71 64 58 55 55 56 55 55 58 64 65 62 58 56 72 92 111 124 130 133 134 127 113 106 104 105 104 102 100 98 95 91 86 79 71 65 59 54 49